Voltar ao catálogo

COSMOS 1223

AtivoMilitarHEO
NORAD 12078·PAYLOAD·🇷🇺 Russia

Lançado Nov 27, 1980 de Plesetsk Cosmodrome

Loading…

Próximas Passagens (próximas 24 horas)

TLE

AtualizadoSource: Space-Track

Época: Sep 5, 2026, 03:12 UTC

1 12078U 80095A   26248.13382162  .00000006  00000-0  00000-0 0  9994
2 12078  73.4438  43.1031 4681613 299.3627 297.9076  2.00666566335231

Acompanhe COSMOS 1223 em tempo real com AllMySat

Download on the App Store